Location: Little Chesterford
(52.0500°N, 0.1833°E)
Time: 21:38:17
(UTC+00:00)

Cosmos 1674 Rocket - Pass Details

Date: 26 September 2023
Orbit: 600 x 628 km, 82.5° (Epoch: 10 December)

Event Time Altitude Azimuth Distance (km) Brightness Sun altitude
Rises 20:31:38 0° 349° (N) 2,932 7.7 -24.6°
Reaches altitude 10° 20:33:53 10° 350° (N) 2,019 6.7 -24.9°
Enters shadow 20:37:51 69° 358° (N) 676 3.7 -25.4°
